Preview of NWS' New Version of Forecast
This preview is not operational and should not be used for support decisions.

Regional Weather Roundup (RWR)

Issued by Glasgow, MT (GGW)

                            
000
ASUS45 KGGW 170515
RWRGGW
HOURLY REGIONAL WEATHER ROUNDUP FOR NORTHEAST MONTANA
NATIONAL WEATHER SERVICE GLASGOW MONTANA
1000 PM MST SUN DEC 16 2018

NOTE: "FAIR" INDICATES FEW OR NO CLOUDS BELOW 12,000 FEET WITH NO
SIGNIFICANT WEATHER AND/OR OBSTRUCTIONS TO VISISBILITY.

NORTHEAST MONTANA

  
CITY           SKY/WX    TMP DP  RH WIND       PRES   REMARKS
GLASGOW        CLEAR     28  22  78 E17       29.94F                  
PLENTYWOOD       N/A     28  21  75 SE12        N/A                   
WOLF POINT     CLEAR     24  20  84 E8        30.02F                  
JORDAN         NOT AVBL                                               
WINNETT          N/A     38  20  48 S6          N/A                   
SIDNEY         PTCLDY    28  22  78 CALM      30.05F                  
GLENDIVE       PTCLDY    30  24  78 E5        30.02F                  
MALTA            N/A     26  26 100 E3          N/A                   

FORT PECK REPORTS

  
CITY           SKY/WX    TMP DP  RH WIND       PRES   REMARKS
FORT PECK        N/A     34  27  75 E12         N/A                   
THE PINES        N/A     34  27  75 SE5         N/A                   

SOUTHEAST MONTANA

  
CITY           SKY/WX    TMP DP  RH WIND       PRES   REMARKS
BILLINGS       PTCLDY    45  17  32 SW20      29.98S                  
MILES CITY     CLEAR     29  26  89 S7        29.99F                  
BAKER          CLEAR     29  25  85 E8        30.04F                  
LIVINGSTON     CLEAR     47  19  33 SW18G25   30.01S                  

CENTRAL MONTANA

  
CITY           SKY/WX    TMP DP  RH WIND       PRES   REMARKS
HAVRE          CLEAR     20  19  96 NW3       29.87S                  
LEWISTOWN      PTCLDY    43  16  33 W8        29.92F                  
GREAT FALLS    CLEAR     45  17  32 S17       29.86F                  
CUT BANK       PTCLDY    31  19  61 CALM      29.82F                  
HELENA         PTCLDY    32  21  64 NW5       29.94F                  
BUTTE          MOCLDY    42  15  33 S18       30.00S                  
BOZEMAN        PTCLDY    24  17  74 SW6       30.03F                  

WESTERN MONTANA

  
CITY           SKY/WX    TMP DP  RH WIND       PRES   REMARKS
MISSOULA       MOCLDY    27  22  81 CALM      30.01R                  
KALISPELL      NOT AVBL                                               

NORTH DAKOTA

  
CITY           SKY/WX    TMP DP  RH WIND       PRES   REMARKS
WILLISTON      MOCLDY    28  18  66 CALM      30.08F                  
DICKINSON      CLEAR     27  19  72 SE12      30.07F                  
MINOT          CLOUDY    22  17  81 E3        30.17F                  
BISMARCK       CLEAR     23  19  85 E8        30.20F                  

SOUTHERN SASKATCHEWAN

  
CITY           SKY/WX    TMP DP  RH WIND       PRES   REMARKS
REGINA         PTCLDY    18  12  79 SE16G24   30.07F                  
ESTEVAN        CLEAR     19  16  86 E10       30.11F                  
SWIFT CURRENT  CLEAR     23  18  80 S7        29.86F